Terminal Aerodrome Forecast
Issued by NWS Twin Cities, MN

Home | Current Version | Previous Version | Graphics & Text | Print | Product List | Glossary On
Versions: 1 2 3 4 5 6 7 8 9 10 11 12 13 14 15 16 17 18 19 20 21 22 23 24 25 26 27 28 29 30 31 32 33
000
FTUS43 KMPX 170500
TAFMSP
TAF
KMSP 170520Z 1706/1812 29010KT P6SM -SN OVC020
      TEMPO 1706/1710 P6SM NSW SCT020 BKN040
     FM171500 33006KT P6SM SCT025 BKN090
     FM172200 36005KT P6SM SCT250=

USA.gov is the U.S. government's official web portal to all federal, state and local government web resources and services.